User: anonymous   Login
Location: Unspecified
(0.0000°N, 0.0000°E)
Time: 20:45:53
(UTC+00:00)
Language:

Spot 3 - Orbit

View from above orbital plane
View from above orbital plane
View from above satellite
View from above satellite

Ground track
Ground track

The orbit data is extracted from the following two-line orbital elements,

1 22823U 93061A   18267.94222147 -.00000003 +00000-0 +20538-4 0  9997
2 22823 099.0084 242.4402 0017282 017.5373 342.6395 14.19205234294180
Epoch (UTC): 24 September 2018 22:36:47
Eccentricity: 0.0017282
inclination: 99.0084°
perigee height: 815 km
apogee height: 840 km
right ascension of ascending node: 242.4402°
argument of perigee: 17.5373°
revolutions per day: 14.19205234
mean anomaly at epoch: 342.6395°
orbit number at epoch: 29418

The dashed part of the orbit path shows where the satellite is in the earth's shadow,  

DLR